Weather History for Fairbanks, AK

Change the Weather History Date:

Monday, July 15, 2013

  Actual Average Record
Temperature  
Mean Temperature 71 °F 63 °F  
Max Temperature 80 °F 73 °F 93 °F (1993)
Min Temperature 62 °F 53 °F 40 °F (1959)
Degree Days  
Heating Degree Days 0 3  
Month to date heating degree days 50 45  
Since 1 June heating degree days 121 205  
Since 1 July heating degree days 50 45  
Cooling Degree Days 6 1  
Month to date cooling degree days 24 19  
Year to date cooling degree days 172 43  
Since 1 June cooling degree days 159 42  
Growing Degree Days 22 (Base 50)    
Moisture  
Dew Point 51 °F    
Average Humidity 50    
Maximum Humidity 78    
Minimum Humidity 22    
Precipitation  
Precipitation 0.00 in 0.08 in 0.66 in (2003)
Month to date precipitation 0.40 0.98  
Year to date precipitation 3.17 4.51  
Snow  
Snow 0.00 in 0.00 in 0.00 in (2002)
Month to date snowfall 0.0 0.0  
Since 1 June snowfall 0.0 0.0  
Since 1 July snowfall 0.0 0.0  
Snow Depth 0.00 in    
Sea Level Pressure  
Sea Level Pressure 30.13 in    
Wind  
Wind Speed 4 mph (West)    
Max Wind Speed 16 mph    
Max Gust Speed -    
Visibility 10 miles    
Events      
T = Trace of Precipitation, MM = Missing Value Source: NWS Daily Summary

Daily Weather History Graph

Daily Weather History Graph

Search for Another Location

Airport:

Trip Planner

Search our weather history database for the weather conditions in past years. The results will help you decide how hot, cold, wet, or windy it might be!

Date:

Astronomy

Jul. 15, 2013 Rise Set
Actual Time 3:54 AM AKDT 11:57 PM AKDT
Civil Twilight 2:29 AM AKDT 1:25 AM AKDT
Nautical Twilight Sun does not rise Sun does not rise
Astronomical Twilight Sun does not rise Sun does not rise
Moon 3:03 PM AKDT (7/15) No Moon Set
Length of Visible Light 22h 55m
Length of Day
20h 02m
Waxing Crescent, 47% of the Moon is Illuminated
Jul 15
Waxing Crescent
Jul 15
First Quarter
Jul 22
Full
Jul 29
Last Quarter
Aug 6
New

Hourly Weather History & Observations

Time (AKDT) Temp. Dew Point Humidity Pressure Visibility Wind Dir Wind Speed Gust Speed Precip Events Conditions
12:53 AM 64.9 °F 55.9 °F 73% 30.09 in 10.0 mi Calm Calm - N/A   Mostly Cloudy
1:53 AM 64.9 °F 55.9 °F 73% 30.10 in 10.0 mi Calm Calm - N/A   Mostly Cloudy
2:53 AM 64.0 °F 57.0 °F 78% 30.11 in 10.0 mi South 3.5 mph - N/A   Mostly Cloudy
3:53 AM 64.9 °F 55.0 °F 70% 30.12 in 10.0 mi Calm Calm - N/A   Mostly Cloudy
4:53 AM 62.1 °F 53.1 °F 72% 30.13 in 10.0 mi NE 3.5 mph - N/A   Mostly Cloudy
5:53 AM 64.0 °F 54.0 °F 70% 30.14 in 10.0 mi Calm Calm - N/A   Mostly Cloudy
6:53 AM 64.9 °F 54.0 °F 68% 30.15 in 10.0 mi Calm Calm - N/A   Mostly Cloudy
7:53 AM 66.0 °F 55.0 °F 68% 30.17 in 10.0 mi Calm Calm - N/A   Mostly Cloudy
8:53 AM 71.1 °F 52.0 °F 51% 30.17 in 10.0 mi Calm Calm - N/A   Mostly Cloudy
9:53 AM 70.0 °F 48.9 °F 47% 30.18 in 10.0 mi WSW 8.1 mph - N/A   Overcast
10:53 AM 73.0 °F 48.9 °F 42% 30.18 in 10.0 mi WSW 8.1 mph - N/A   Overcast
11:53 AM 73.9 °F 46.9 °F 38% 30.17 in 10.0 mi WSW 9.2 mph - N/A   Mostly Cloudy
12:53 PM 75.9 °F 48.0 °F 37% 30.17 in 10.0 mi WSW 13.8 mph - N/A   Mostly Cloudy
1:53 PM 77.0 °F 48.0 °F 36% 30.17 in 10.0 mi NW 11.5 mph - N/A   Mostly Cloudy
2:53 PM 78.1 °F 48.9 °F 36% 30.15 in 10.0 mi WSW 9.2 mph - N/A   Mostly Cloudy
3:53 PM 80.1 °F 48.0 °F 32% 30.13 in 10.0 mi West 8.1 mph - N/A   Mostly Cloudy
4:53 PM 79.0 °F 48.0 °F 34% 30.12 in 10.0 mi West 6.9 mph - N/A   Mostly Cloudy
5:53 PM 78.1 °F 48.9 °F 36% 30.11 in 10.0 mi West 12.7 mph - N/A   Mostly Cloudy
6:53 PM 75.9 °F 48.9 °F 38% 30.11 in 10.0 mi WNW 9.2 mph - N/A   Mostly Cloudy
7:53 PM 75.0 °F 50.0 °F 41% 30.10 in 10.0 mi West 5.8 mph - N/A   Mostly Cloudy
8:53 PM 73.9 °F 50.0 °F 43% 30.10 in 10.0 mi West 6.9 mph - N/A   Mostly Cloudy
9:53 PM 72.0 °F 51.1 °F 48% 30.10 in 10.0 mi West 4.6 mph - N/A   Overcast
10:53 PM 70.0 °F 53.1 °F 55% 30.11 in 10.0 mi West 4.6 mph - N/A   Overcast
11:53 PM 68.0 °F 52.0 °F 56% 30.11 in 10.0 mi West 4.6 mph - N/A   Mostly Cloudy